TimeCST,TemperatureF,Dew PointF,Humidity,Sea Level PressureIn,VisibilityMPH,Wind Direction,Wind SpeedMPH,Gust SpeedMPH,PrecipitationIn,Events,Conditions,WindDirDegrees,DateUTC
12:53 AM,23.0,17.1,78,30.46,10.0,North,5.8,-,N/A,,Clear,350,2012-11-27 06:53:00
1:53 AM,21.9,16.0,78,30.45,10.0,North,5.8,-,N/A,,Clear,350,2012-11-27 07:53:00
2:53 AM,21.0,15.1,78,30.46,10.0,North,6.9,-,N/A,,Clear,350,2012-11-27 08:53:00
3:53 AM,19.9,14.0,78,30.45,10.0,NNW,4.6,-,N/A,,Clear,340,2012-11-27 09:53:00
4:53 AM,18.0,12.9,81,30.46,10.0,NW,4.6,-,N/A,,Clear,320,2012-11-27 10:53:00
6:53 AM,18.0,12.9,81,30.48,10.0,NNW,3.5,-,N/A,,Clear,330,2012-11-27 12:53:00
7:53 AM,19.0,14.0,81,30.48,10.0,Calm,Calm,-,N/A,,Clear,0,2012-11-27 13:53:00
8:53 AM,24.1,15.1,69,30.51,10.0,Calm,Calm,-,N/A,,Clear,0,2012-11-27 14:53:00
9:53 AM,27.0,15.1,61,30.51,10.0,Calm,Calm,-,N/A,,Clear,0,2012-11-27 15:53:00
10:53 AM,30.9,16.0,54,30.48,10.0,ESE,5.8,-,N/A,,Clear,110,2012-11-27 16:53:00
11:53 AM,34.0,18.0,52,30.45,10.0,SSW,5.8,-,N/A,,Clear,200,2012-11-27 17:53:00
12:53 PM,37.0,16.0,42,30.41,10.0,SSW,5.8,-,N/A,,Clear,210,2012-11-27 18:53:00
2:53 PM,39.9,18.0,41,30.36,9.0,SSW,8.1,-,N/A,,Clear,200,2012-11-27 20:53:00
3:53 PM,39.0,18.0,43,30.35,10.0,SSW,9.2,-,N/A,,Clear,200,2012-11-27 21:53:00
4:53 PM,37.0,18.0,46,30.34,10.0,SSW,5.8,-,N/A,,Clear,210,2012-11-27 22:53:00
5:53 PM,36.0,18.0,48,30.34,10.0,SSW,4.6,-,N/A,,Clear,210,2012-11-27 23:53:00
6:53 PM,35.1,18.0,50,30.34,10.0,SSW,5.8,-,N/A,,Clear,210,2012-11-28 00:53:00
7:53 PM,33.1,19.0,56,30.34,10.0,SSW,6.9,-,N/A,,Clear,210,2012-11-28 01:53:00
8:53 PM,30.0,19.0,64,30.35,10.0,Calm,Calm,-,N/A,,Clear,0,2012-11-28 02:53:00
9:53 PM,28.9,19.0,67,30.37,10.0,Calm,Calm,-,N/A,,Clear,0,2012-11-28 03:53:00
10:53 PM,30.9,19.9,64,30.36,10.0,SSW,6.9,-,N/A,,Clear,210,2012-11-28 04:53:00
11:53 PM,32.0,21.0,64,30.37,10.0,SW,8.1,-,N/A,,Clear,220,2012-11-28 05:53:00